Flag for Canada Weather past 2 weeks in Gatineau, Quebec, Canada

Now
82 °F

Scattered clouds.


Feels Like: 82 °F
Forecast: N/A
Wind: 8 mph from Southwest

Location: Ottawa Int'L. Ont.

Current Time: Jul 12, 2014 at 6:00:37 PM

Latest Report: Jul 12, 2014 at 5:00 PM


Visibility: 15 mi

Pressure: 30.05 "Hg

Humidity: 45%

Dew point: 59 °F

Location of GatineauLocation

Historic Weather in Gatineau — Graph

°F

Gatineau temperature yesterday

Maximum temperature yesterday: 79 °F (at 4:00 PM)
Minimum temperature yesterday: 50 °F (at 5:00 AM)
Average temperature yesterday: 66 °F

Past Weeks' High & Low Weather Summary

 TemperatureHumidityPressure
High88 °F (Jul 1, 3:00 PM)100% (Jul 8, 5:00 AM)30.25 "Hg (Jul 8, 5:00 AM)
Low50 °F (Jul 11, 5:00 AM)31% (Jun 27, 6:00 PM)29.41 "Hg (Jul 8, 8:00 PM)
Average71 °F71%29.92 "Hg
* Reported Jun 27 5:00 PM — Jul 12 5:00 PM, Gatineau, Weather by CustomWeather, © 2014

Note: Actual official high and low records may vary slightly from our data, if they occured in-between our weather recording intervals... More about our weather records

Advertising

Gatineau weather history for previous 24 hours

 ConditionsComfort  
Time TempWeatherWind HumidityBarometerVisibility
5:00 PM
Jul 12
82 °FScattered clouds.8 mph45%30.05 "Hg15 mi
4:00 PM81 °FPassing clouds.9 mph48%30.06 "Hg15 mi
3:00 PM81 °FScattered clouds.6 mph51%30.08 "Hg15 mi
2:00 PM79 °FScattered clouds.2 mph51%30.11 "Hg15 mi
1:00 PM77 °FBroken clouds.6 mph51%30.12 "Hg15 mi
12:00 PM75 °FBroken clouds.7 mph54%30.14 "Hg15 mi
11:00 AM75 °FBroken clouds.6 mph61%30.15 "Hg15 mi
10:00 AM72 °FBroken clouds.6 mph69%30.15 "Hg15 mi
9:00 AM68 °FScattered clouds.2 mph69%30.16 "Hg15 mi
8:00 AM63 °FScattered clouds.3 mph77%30.18 "Hg15 mi
7:00 AM57 °FScattered clouds.2 mph88%30.17 "Hg15 mi
6:00 AM57 °FPartly cloudy.No wind88%30.17 "Hg15 mi
5:00 AM57 °FPassing clouds.7 mph82%30.17 "Hg15 mi
4:00 AM57 °FPassing clouds.5 mph82%30.16 "Hg15 mi
3:00 AM59 °FPassing clouds.2 mph82%30.17 "Hg15 mi
2:00 AM61 °FPassing clouds.3 mph77%30.18 "Hg15 mi
1:00 AM63 °FPassing clouds.3 mph68%30.19 "Hg15 mi
12:00 AM64 °FPassing clouds.5 mph68%30.19 "Hg15 mi
11:00 PM
Jul 11
64 °FPassing clouds.5 mph73%30.19 "Hg15 mi
10:00 PM66 °FPassing clouds.6 mph73%30.19 "Hg15 mi
9:00 PM70 °FPassing clouds.5 mph60%30.17 "Hg15 mi
8:00 PM73 °FPassing clouds.6 mph53%30.16 "Hg15 mi
7:00 PM77 °FPassing clouds.7 mph44%30.16 "Hg15 mi
6:00 PM79 °FPassing clouds.9 mph42%30.16 "Hg15 mi
Weather by CustomWeather, © 2014

See weather overviewHow to use our weather pages